Regional Weather Roundup
Issued by NWS Upton, NY

Home | Current Version | Previous Version | Text Only | Print | Product List | Glossary On
Versions: 1 2 3 4 5 6 7 8 9 10 11 12 13 14 15 16 17 18 19 20 21 22 23 24 25 26 27
000
ASUS41 KOKX 270909
RWROKX

REGIONAL WEATHER ROUNDUP
NATIONAL WEATHER SERVICE NEW YORK NY
500 AM EDT TUE JUN 27 2017

NOTE: "FAIR" INDICATES FEW OR NO CLOUDS BELOW 12,000 FEET WITH NO
SIGNIFICANT WEATHER AND/OR OBSTRUCTIONS TO VISIBILITY.

NYZ071-072-176-178-NJZ106-104-271000-
NEW YORK CITY METRO AREA

CITY           SKY/WX    TMP DP  RH WIND       PRES   REMARKS
Central Park   LGT RAIN  63  56  78 CALM      30.04R
Bronx Bot Gard   N/A     64  54  68 CALM      30.01R
LaGuardia APRT NOT AVBL
Kennedy INTL   MOCLDY    67  53  61 MISG      30.01R
Breezy Point     N/A     66 N/A N/A NW2         N/A
Newark/Liberty LGT RAIN  63  55  75 N6        30.00R
Teterboro      NOT AVBL
$$

NYZ177-179-078>081-271000-
LONG ISLAND NEW YORK

CITY           SKY/WX    TMP DP  RH WIND       PRES   REMARKS
Jones Beach      N/A     64 N/A N/A NE2         N/A
Matinecock PT  NOT AVBL
Farmingdale    NOT AVBL
MacArthur/ISP  NOT AVBL
Shirley        NOT AVBL
Mt Sinai Harb    N/A    N/A N/A N/A N3          N/A
Westhampton    NOT AVBL
East Hampton   FAIR      63  61  96 CALM      29.99S
Montauk          N/A     66  63  90 VRB5      30.00F
$$

NYZ052-065-067-271000-
HUDSON VALLEY

CITY           SKY/WX    TMP DP  RH WIND       PRES   REMARKS
White Plains   NOT AVBL
Larchmont Harb   N/A     64 N/A N/A SW1         N/A
Croton O-T Hud   N/A     63 N/A N/A MISG        N/A
Newburgh       MOCLDY    59  57  94 VRB6      30.00S
Montgomery     NOT AVBL
Poughkeepsie   NOT AVBL
Albany         CLOUDY    56  54  93 S5        29.99R
$$

NJZ001-105-106-008-010-013-015-019>022-104-271000-
NEW JERSEY

CITY           SKY/WX    TMP DP  RH WIND       PRES   REMARKS
Newark/Liberty LGT RAIN  63  55  75 N6        30.00R
Teterboro      NOT AVBL
Caldwell       NOT AVBL
Somerville     NOT AVBL
Linden         RAIN      63  55  75 CALM      30.03R
Perth Amboy      N/A     63 N/A N/A W6          N/A
Sussex         NOT AVBL
Andover          N/A     58  55  90 CALM      30.00S
Trenton        NOT AVBL
Millville      NOT AVBL
Atlantic City  CLOUDY    66  59  78 NW5       30.00R
Wrightstown    CLOUDY    60  57  90 E7        30.01R
Toms River     NOT AVBL
Belmar         NOT AVBL
$$

PAZ047>061-062-071-271000-
EASTERN PENNSYLVANIA

CITY           SKY/WX    TMP DP  RH WIND       PRES   REMARKS
Philadelphia   MOCLDY    63  60  90 E6        29.99F
Allentown      NOT AVBL
Scranton       NOT AVBL
$$

CTZ002-004>006-009-010-012-RIZ004-006-007-MAZ004-011-015-271000-
SOUTHERN NEW ENGLAND
 IN CT

CITY           SKY/WX    TMP DP  RH WIND       PRES   REMARKS
Bradley INTL   MOCLDY    57  54  89 NW6       30.00F
Hartford       CLOUDY    60  56  86 CALM      30.00S
Danbury        NOT AVBL
Wtrbury/Oxford CLOUDY    59  48  67 N8        30.00S
Bridgeport     NOT AVBL
Meriden        CLOUDY    59  56  89 CALM      30.00S
New Haven      NOT AVBL
Chester        FAIR      61  59  94 N3        30.00S
Groton         MOCLDY    60  59  96 N5        29.99R
Wilimantic     PTCLDY    56  53  90 N5        30.01S

 IN RI

CITY           SKY/WX    TMP DP  RH WIND       PRES   REMARKS
Providence     PTCLDY    59  57  93 CALM      30.01S
Block Island   CLEAR     64  62  93 SW9       30.00F
Westerly       PTCLDY    59  57  93 N7        30.00S
 IN MA

CITY           SKY/WX    TMP DP  RH WIND       PRES   REMARKS
Boston         PTCLDY    62  54  74 SW6       29.99F
Worcester      PTCLDY    56  49  77 NW5       30.01S
Westfield      CLOUDY    55  54  96 SW3         N/A
Provincetown   PTCLDY    60  58  92 S7        30.01S
Nantucket      CLEAR     60  58  92 S6        30.03R
$$

ANZ330-335-338-340-345-350-353-355-271000-
COASTAL MARINE OBSERVATIONS


STATION/POSITION TIME  SKY/WX   TEMP    WIND        PRES    VSBY  WAVE
                                AIR SEA DIR/SP/G                  HT/PER
                 (UTC)          (F)     (DEG/KT/KT) (MB)    (MI)  (FT/S)
NY HARB ENTRANCE 0750            67 67  280/  6/  6 1015.5          2/ 7
20 S FIRE ISLAND 0850            68 69  270/  8/ 12 1015.5          2/ 4
GREAT SOUTH BAY  0815            70 75  280/  8/ 10   N/A
23 SSW MONTAUK P 0750            66 65              1016.3          2/ 7
15 E BARNEGAT LI 0830               65                N/A           2/ 8
HUDSON CANYON    0750            68 67  170/  4/  4 1015.9          2/ 7
KINGS POINT      0824            66 64   80/  3/  7 1015.1
EXECUTION ROCKS  0845            65      40/  4/  6   N/A
CENTRAL LI SOUND 0830            67     340/  8/ 12   N/A           1
EASTERN LI SOUND NOT AVBL
ROBBINS REEF     0830                   330/  8/ 10 1016.5
$$


>>>>>>>>>>>>>>>>>>>>>>>>>>>> KEY <<<<<<<<<<<<<<<<<<<<<<<<<<<
>                                                          <
>     SKY/WX - Sky Condition/Present Weather               <
>     TMP    - Temperature in Fahrenheit                   <
>     DP     - Dew Point in Fahrenheit                     <
>     RH     - Relative Humidity in Percent                <
>     WIND   - Direction (from) and Speed in MPH           <
>     PRES   - Mean Sea Level Pressure (inches of Hg)      <
>     WCI    - Wind Chill Index                            <
>     VSB    - VISIBILITY IN MILES                         <
>     HX     - HEAT INDEX                                  <
>     TC     - TEMPERATURE IN CELSIUS                      <
>     VRB    - VARIABLE WIND DIRECTION                     <
>                                                          <
>>>>>>>>>>>>>>>>>>>>>>>>>>>> KEY <<<<<<<<<<<<<<<<<<<<<<<<<<<




USA.gov is the U.S. government's official web portal to all federal, state and local government web resources and services.